Retour au catalogue

STARLINK-30214

ActifCommunicationsVLEO
NORAD 57411·PAYLOAD·🇺🇸 United States

Lancé Jul 20, 2023 depuis Vandenberg Space Force Base

Loading…

Prochains Passages (prochaines 24 heures)

TLE

FraisSource: CelesTrak SupGP

Époque: Sep 14, 2026, 21:05 UTC

1 57411C 23102H   26257.87895833  .00030334  00000+0  10992-2 0  2571
2 57411  43.0021 260.0409 0001815 264.1429 154.0707 15.27549445    15

Suivez STARLINK-30214 en temps réel avec AllMySat

Download on the App Store